| time (UTC) | temp F | wind direction | speed knots | gust knots | rain 1hr in | rain 24hr in | rain mn in | humidity % | barometer mb |
| 20260502195913 | 49 | 130 | 0.9 | 3.5 | 0.00 | 0.00 | 0.00 | 66 | 1020.5 |
| 20260502195414 | 50 | 190 | 1.7 | 3.5 | 0.00 | 0.00 | 0.00 | 65 | 1020.5 |
| 20260502195138 | 50 | 133 | 1.7 | 7.0 | 0.00 | 0.00 | 0.00 | 64 | 1020.5 |
| 20260502194410 | 50 | 145 | 1.7 | 7.0 | 0.00 | 0.00 | 0.00 | 62 | 1020.5 |
| 20260502193910 | 49 | 148 | 0.9 | 2.6 | 0.00 | 0.00 | 0.00 | 66 | 1020.4 |
| 20260502193410 | 49 | 163 | 0.0 | 2.6 | 0.00 | 0.00 | 0.00 | 67 | 1020.4 |
| 20260502192910 | 49 | 144 | 0.0 | 0.9 | 0.00 | 0.00 | 0.00 | 66 | 1020.4 |
| 20260502192410 | 49 | 144 | 0.9 | 4.3 | 0.00 | 0.00 | 0.00 | 63 | 1020.3 |
| 20260502191909 | 50 | 143 | 0.9 | 4.3 | 0.00 | 0.00 | 0.00 | 63 | 1020.4 |
| 20260502191410 | 50 | 143 | 1.7 | 6.1 | 0.00 | 0.00 | 0.00 | 64 | 1020.3 |
| 20260502191136 | 50 | 111 | 0.9 | 6.1 | 0.00 | 0.00 | 0.00 | 63 | 1020.3 |
| 20260502190408 | 49 | 153 | 0.9 | 3.5 | 0.00 | 0.00 | 0.00 | 65 | 1020.2 |
| 20260502185905 | 49 | 98 | 0.9 | 3.5 | 0.00 | 0.00 | 0.00 | 64 | 1020.2 |
| 20260502185402 | 50 | 209 | 0.9 | 2.6 | 0.00 | 0.00 | 0.00 | 62 | 1020.1 |
| 20260502184901 | 50 | 102 | 0.0 | 0.9 | 0.00 | 0.00 | 0.00 | 64 | 1020.1 |
| 20260502184355 | 50 | 97 | 0.9 | 2.6 | 0.00 | 0.00 | 0.00 | 64 | 1020.1 |
| 20260502183852 | 51 | 97 | 0.9 | 3.5 | 0.00 | 0.00 | 0.00 | 63 | 1020.1 |
| 20260502183351 | 52 | 79 | 0.9 | 3.5 | 0.00 | 0.00 | 0.00 | 60 | 1020.0 |
| 20260502182850 | 51 | 31 | 0.9 | 2.6 | 0.00 | 0.00 | 0.00 | 61 | 1020.0 |
| 20260502182349 | 51 | 219 | 0.9 | 2.6 | 0.00 | 0.00 | 0.00 | 62 | 1020.0 |
| 20260502182122 | 51 | 346 | 0.9 | 3.5 | 0.00 | 0.00 | 0.00 | 60 | 1019.9 |
| 20260502181345 | 51 | 248 | 0.9 | 3.5 | 0.00 | 0.00 | 0.00 | 61 | 1019.7 |
| 20260502180849 | 53 | 165 | 1.7 | 7.0 | 0.00 | 0.00 | 0.00 | 52 | 1019.7 |
| 20260502180844 | 52 | 137 | 0.9 | 3.5 | 0.00 | 0.00 | 0.00 | 57 | 1019.7 |
| 20260502170330 | 56 | 126 | 1.7 | 3.5 | 0.00 | 0.00 | 0.00 | 46 | 1019.5 |
| 20260502164329 | 57 | 182 | 2.6 | 6.1 | 0.00 | 0.00 | 0.00 | 46 | 1019.5 |
| 20260502163845 | 58 | 157 | 2.6 | 6.1 | 0.00 | 0.00 | 0.00 | 43 | 1019.7 |
| 20260502163333 | 58 | 136 | 3.5 | 7.8 | 0.00 | 0.00 | 0.00 | 43 | 1019.7 |
| 20260502162832 | 60 | 134 | 3.5 | 7.8 | 0.00 | 0.00 | 0.00 | 43 | 1019.7 |
| 20260502162330 | 60 | 165 | 4.3 | 11.3 | 0.00 | 0.00 | 0.00 | 38 | 1019.7 |
| 20260502161834 | 61 | 156 | 4.3 | 11.3 | 0.00 | 0.00 | 0.00 | 37 | 1019.9 |
| 20260502161332 | 61 | 154 | 4.3 | 9.6 | 0.00 | 0.00 | 0.00 | 38 | 1019.7 |
| 20260502160830 | 60 | 186 | 3.5 | 8.7 | 0.00 | 0.00 | 0.00 | 40 | 1019.9 |
| 20260502160328 | 59 | 142 | 2.6 | 7.0 | 0.00 | 0.00 | 0.00 | 40 | 1020.0 |
| 20260502152320 | 59 | 164 | 1.7 | 3.5 | 0.00 | 0.00 | 0.00 | 42 | 1020.2 |
| 20260502151813 | 58 | 155 | 0.9 | 4.3 | 0.00 | 0.00 | 0.00 | 44 | 1020.2 |
| 20260502151313 | 59 | 155 | 0.0 | 4.3 | 0.00 | 0.00 | 0.00 | 43 | 1020.2 |
| 20260502150811 | 59 | 192 | 0.0 | 1.7 | 0.00 | 0.00 | 0.00 | 40 | 1020.3 |
| 20260502150311 | 59 | 192 | 0.9 | 3.5 | 0.00 | 0.00 | 0.00 | 45 | 1020.3 |
| 20260502130523 | 70 | 140 | 1.7 | 7.0 | 0.00 | 0.00 | 0.00 | 24 | 1021.5 |
| 20260502123757 | 69 | 263 | 2.6 | 8.7 | 0.00 | 0.00 | 0.00 | 25 | 1021.8 |
| 20260502123257 | 69 | 308 | 0.9 | 7.0 | 0.00 | 0.00 | 0.00 | 22 | 1021.9 |
| 20260502123023 | 70 | 345 | 1.7 | 3.5 | 0.00 | 0.00 | 0.00 | 27 | 1021.9 |
| 20260502122306 | 69 | 327 | 1.7 | 4.3 | 0.00 | 0.00 | 0.00 | 26 | 1022.0 |
| 20260502122258 | 69 | 132 | 1.7 | 3.5 | 0.00 | 0.00 | 0.00 | 23 | 1021.9 |
| 20260502121250 | 69 | 333 | 1.7 | 7.0 | 0.00 | 0.00 | 0.00 | 24 | 1022.0 |
| 20260502120744 | 69 | 271 | 1.7 | 7.8 | 0.00 | 0.00 | 0.00 | 29 | 1022.1 |
| 20260502120238 | 68 | 302 | 1.7 | 7.8 | 0.00 | 0.00 | 0.00 | 26 | 1022.1 |
| 20260502115732 | 68 | 343 | 2.6 | 7.0 | 0.00 | 0.00 | 0.00 | 23 | 1022.1 |
| 20260502115457 | 69 | 342 | 2.6 | 8.7 | 0.00 | 0.00 | 0.00 | 28 | 1022.2 |
| 20260502114730 | 68 | 329 | 1.7 | 8.7 | 0.00 | 0.00 | 0.00 | 27 | 1022.2 |
| 20260502114230 | 68 | 269 | 1.7 | 7.8 | 0.00 | 0.00 | 0.00 | 26 | 1022.3 |
| 20260502113730 | 68 | 239 | 2.6 | 7.8 | 0.00 | 0.00 | 0.00 | 23 | 1022.2 |
| 20260502113230 | 68 | 315 | 2.6 | 7.8 | 0.00 | 0.00 | 0.00 | 26 | 1022.4 |
| 20260502112729 | 68 | 273 | 2.6 | 7.8 | 0.00 | 0.00 | 0.00 | 25 | 1022.6 |
| 20260502112231 | 68 | 333 | 2.6 | 7.8 | 0.00 | 0.00 | 0.00 | 25 | 1022.6 |
| 20260502111728 | 68 | 256 | 2.6 | 7.8 | 0.00 | 0.00 | 0.00 | 27 | 1022.6 |
| 20260502111228 | 67 | 296 | 3.5 | 7.8 | 0.00 | 0.00 | 0.00 | 29 | 1022.6 |
| 20260502110728 | 68 | 276 | 3.5 | 8.7 | 0.00 | 0.00 | 0.00 | 26 | 1022.8 |
| 20260502110453 | 67 | 300 | 3.5 | 8.7 | 0.00 | 0.00 | 0.00 | 29 | 1022.8 |
| 20260502105951 | 67 | 290 | 3.5 | 7.8 | 0.00 | 0.00 | 0.00 | 30 | 1022.8 |
| 20260502105229 | 67 | 298 | 3.5 | 8.7 | 0.00 | 0.00 | 0.00 | 32 | 1022.8 |
| 20260502104952 | 68 | 266 | 3.5 | 8.7 | 0.00 | 0.00 | 0.00 | 27 | 1022.9 |
| 20260502104229 | 67 | 279 | 4.3 | 8.7 | 0.00 | 0.00 | 0.00 | 29 | 1022.9 |
| 20260502103729 | 67 | 316 | 4.3 | 8.7 | 0.00 | 0.00 | 0.00 | 30 | 1023.0 |
| 20260502103448 | 66 | 225 | 4.3 | 8.7 | 0.00 | 0.00 | 0.00 | 28 | 1023.1 |
| 20260502102722 | 67 | 294 | 4.3 | 9.6 | 0.00 | 0.00 | 0.00 | 28 | 1023.1 |
| 20260502102217 | 66 | 331 | 4.3 | 9.6 | 0.00 | 0.00 | 0.00 | 31 | 1023.2 |
| 20260502101710 | 65 | 321 | 6.1 | 9.6 | 0.00 | 0.00 | 0.00 | 28 | 1023.3 |
| 20260502101425 | 65 | 340 | 6.1 | 10.4 | 0.00 | 0.00 | 0.00 | 30 | 1023.3 |
| 20260502101158 | 65 | 327 | 6.1 | 10.4 | 0.00 | 0.00 | 0.00 | 33 | 1023.5 |
| 20260502100206 | 65 | 324 | 6.1 | 9.6 | 0.00 | 0.00 | 0.00 | 31 | 1023.6 |
| 20260502091204 | 62 | 330 | 4.3 | 7.8 | 0.00 | 0.00 | 0.00 | 39 | 1024.0 |
| 20260502090704 | 62 | 326 | 4.3 | 7.8 | 0.00 | 0.00 | 0.00 | 41 | 1024.1 |
| 20260502090449 | 61 | 306 | 4.3 | 7.8 | 0.00 | 0.00 | 0.00 | 43 | 1024.1 |
| 20260502090157 | 61 | 326 | 4.3 | 7.8 | 0.00 | 0.00 | 0.00 | 42 | 1024.1 |
| 20260502071145 | 49 | 217 | 0.0 | 0.0 | 0.00 | 0.00 | 0.00 | 64 | 1025.1 |
| 20260502070646 | 48 | 217 | 0.0 | 0.0 | 0.00 | 0.00 | 0.00 | 64 | 1025.3 |
| 20260502070146 | 47 | 217 | 0.0 | 0.0 | 0.00 | 0.00 | 0.00 | 70 | 1025.3 |
| 20260502065646 | 46 | 217 | 0.0 | 0.0 | 0.00 | 0.00 | 0.00 | 72 | 1025.3 |
| 20260502065146 | 45 | 217 | 0.0 | 0.0 | 0.00 | 0.00 | 0.00 | 77 | 1025.4 |
| 20260502064646 | 44 | 217 | 0.0 | 0.0 | 0.00 | 0.00 | 0.00 | 80 | 1025.4 |
| 20260502064147 | 42 | 217 | 0.0 | 0.0 | 0.00 | 0.00 | 0.00 | 82 | 1025.4 |
| 20260502063641 | 41 | 217 | 0.0 | 0.0 | 0.00 | 0.00 | 0.00 | 83 | 1025.5 |
| 20260502063142 | 40 | 217 | 0.0 | 0.0 | 0.00 | 0.00 | 0.00 | 86 | 1025.4 |
| 20260502062642 | 39 | 217 | 0.0 | 0.0 | 0.00 | 0.00 | 0.00 | 85 | 1025.5 |
| 20260502062404 | 37 | 217 | 0.0 | 0.0 | 0.00 | 0.00 | 0.00 | 90 | 1025.5 |
| 20260502062347 | 38 | 217 | 0.0 | 0.0 | 0.00 | 0.00 | 0.00 | 88 | 1025.4 |
| 20260502061142 | 36 | 217 | 0.0 | 0.0 | 0.00 | 0.00 | 0.00 | 90 | 1025.5 |
| 20260502060639 | 36 | 217 | 0.0 | 0.0 | 0.00 | 0.00 | 0.00 | 90 | 1025.5 |
| 20260502060138 | 36 | 217 | 0.0 | 0.0 | 0.00 | 0.00 | 0.00 | 90 | 1025.6 |
| 20260502055635 | 36 | 217 | 0.0 | 0.0 | 0.00 | 0.00 | 0.00 | 89 | 1025.6 |
| 20260502055135 | 36 | 217 | 0.0 | 0.0 | 0.00 | 0.00 | 0.00 | 87 | 1025.6 |
| 20260502054633 | 37 | 217 | 0.0 | 0.0 | 0.00 | 0.00 | 0.00 | 88 | 1025.7 |
| 20260502054134 | 36 | 217 | 0.0 | 0.0 | 0.00 | 0.00 | 0.00 | 88 | 1025.7 |
| 20260502053632 | 36 | 217 | 0.0 | 0.0 | 0.00 | 0.00 | 0.00 | 88 | 1025.7 |
| 20260502053620 | 36 | 217 | 0.0 | 0.0 | 0.00 | 0.00 | 0.00 | 87 | 1025.7 |
| 20260502052628 | 36 | 217 | 0.0 | 0.0 | 0.00 | 0.00 | 0.00 | 88 | 1025.7 |
| 20260502052121 | 36 | 217 | 0.0 | 0.0 | 0.00 | 0.00 | 0.00 | 89 | 1025.7 |
| 20260502051615 | 36 | 217 | 0.0 | 0.0 | 0.00 | 0.00 | 0.00 | 88 | 1025.7 |
| 20260502051110 | 36 | 217 | 0.0 | 0.0 | 0.00 | 0.00 | 0.00 | 87 | 1025.7 |
| 20260502050831 | 36 | 217 | 0.0 | 0.0 | 0.00 | 0.00 | 0.00 | 88 | 1025.7 |
| 20260502050058 | 36 | 217 | 0.0 | 0.0 | 0.00 | 0.00 | 0.00 | 88 | 1025.7 |
| 20260502045551 | 36 | 217 | 0.0 | 0.0 | 0.00 | 0.00 | 0.00 | 88 | 1025.7 |
| 20260502045313 | 35 | 217 | 0.0 | 0.0 | 0.00 | 0.00 | 0.00 | 87 | 1025.7 |
| 20260502044545 | 36 | 217 | 0.0 | 0.0 | 0.00 | 0.00 | 0.00 | 87 | 1025.7 |
| 20260502044044 | 36 | 217 | 0.0 | 0.0 | 0.00 | 0.00 | 0.00 | 86 | 1025.7 |
| 20260502043543 | 36 | 217 | 0.0 | 0.0 | 0.00 | 0.00 | 0.00 | 87 | 1025.6 |
| 20260502043042 | 36 | 217 | 0.0 | 0.0 | 0.00 | 0.00 | 0.00 | 87 | 1025.6 |
| 20260502042541 | 36 | 217 | 0.0 | 0.0 | 0.00 | 0.00 | 0.00 | 87 | 1025.6 |
| 20260502042040 | 36 | 217 | 0.0 | 0.0 | 0.00 | 0.00 | 0.00 | 88 | 1025.6 |
| 20260502041539 | 36 | 217 | 0.0 | 0.0 | 0.00 | 0.00 | 0.00 | 88 | 1025.6 |
| 20260502041040 | 36 | 217 | 0.0 | 0.0 | 0.00 | 0.00 | 0.00 | 88 | 1025.7 |
| 20260502040538 | 36 | 217 | 0.0 | 0.0 | 0.00 | 0.00 | 0.00 | 88 | 1025.7 |
| 20260502040036 | 36 | 217 | 0.0 | 0.0 | 0.00 | 0.00 | 0.00 | 88 | 1025.6 |
| 20260502035535 | 36 | 217 | 0.0 | 0.0 | 0.00 | 0.00 | 0.00 | 87 | 1025.7 |
| 20260502035301 | 36 | 217 | 0.0 | 0.0 | 0.00 | 0.00 | 0.00 | 87 | 1025.7 |
| 20260502034534 | 36 | 217 | 0.0 | 0.0 | 0.00 | 0.00 | 0.00 | 86 | 1025.7 |
| 20260502034031 | 37 | 217 | 0.0 | 0.0 | 0.00 | 0.00 | 0.00 | 86 | 1025.7 |
| 20260502033531 | 37 | 217 | 0.0 | 0.0 | 0.00 | 0.00 | 0.00 | 86 | 1025.7 |
| 20260502033029 | 36 | 217 | 0.0 | 0.0 | 0.00 | 0.00 | 0.00 | 86 | 1025.7 |
| 20260502032529 | 36 | 217 | 0.0 | 0.0 | 0.00 | 0.00 | 0.00 | 87 | 1025.7 |
| 20260502032030 | 36 | 217 | 0.0 | 0.0 | 0.00 | 0.00 | 0.00 | 88 | 1025.8 |
| 20260502031531 | 36 | 217 | 0.0 | 0.0 | 0.00 | 0.00 | 0.00 | 88 | 1025.7 |
| 20260502031255 | 36 | 217 | 0.0 | 0.0 | 0.00 | 0.00 | 0.00 | 88 | 1025.8 |
| 20260502030532 | 36 | 217 | 0.0 | 0.0 | 0.00 | 0.00 | 0.00 | 88 | 1025.8 |
| 20260502030528 | 36 | 217 | 0.0 | 0.0 | 0.00 | 0.00 | 0.00 | 87 | 1025.8 |
| 20260502025529 | 36 | 217 | 0.0 | 0.0 | 0.00 | 0.00 | 0.00 | 86 | 1025.8 |
| 20260502025029 | 37 | 217 | 0.0 | 0.0 | 0.00 | 0.00 | 0.00 | 86 | 1025.8 |
| 20260502024528 | 37 | 217 | 0.0 | 0.0 | 0.00 | 0.00 | 0.00 | 85 | 1025.8 |
| 20260502024030 | 37 | 217 | 0.0 | 0.0 | 0.00 | 0.00 | 0.00 | 85 | 1025.9 |
| 20260502023531 | 37 | 217 | 0.0 | 0.0 | 0.00 | 0.00 | 0.00 | 86 | 1026.0 |
| 20260502023031 | 37 | 217 | 0.0 | 0.0 | 0.00 | 0.00 | 0.00 | 86 | 1025.9 |
| 20260502022530 | 37 | 217 | 0.0 | 0.0 | 0.00 | 0.00 | 0.00 | 86 | 1026.0 |
| 20260502022030 | 37 | 217 | 0.0 | 0.0 | 0.00 | 0.00 | 0.00 | 87 | 1025.9 |
| 20260502021530 | 36 | 217 | 0.0 | 0.0 | 0.00 | 0.00 | 0.00 | 87 | 1026.0 |
| 20260502021031 | 37 | 217 | 0.0 | 0.0 | 0.00 | 0.00 | 0.00 | 86 | 1026.0 |
| 20260502020530 | 37 | 217 | 0.0 | 0.0 | 0.00 | 0.00 | 0.00 | 87 | 1026.0 |
| 20260502020031 | 37 | 217 | 0.0 | 0.0 | 0.00 | 0.00 | 0.00 | 86 | 1026.0 |
| 20260502015531 | 38 | 217 | 0.0 | 0.0 | 0.00 | 0.00 | 0.00 | 85 | 1026.0 |
| 20260502015514 | 38 | 217 | 0.0 | 0.0 | 0.00 | 0.00 | 0.00 | 85 | 1026.0 |
| 20260502014529 | 38 | 217 | 0.0 | 0.0 | 0.00 | 0.00 | 0.00 | 84 | 1026.0 |
| 20260502014027 | 38 | 217 | 0.0 | 0.0 | 0.00 | 0.00 | 0.00 | 84 | 1026.2 |
| 20260502013525 | 38 | 217 | 0.0 | 0.0 | 0.00 | 0.00 | 0.00 | 84 | 1026.2 |
| 20260502013251 | 38 | 217 | 0.0 | 0.0 | 0.00 | 0.00 | 0.00 | 83 | 1026.2 |
| 20260502012525 | 38 | 217 | 0.0 | 0.0 | 0.00 | 0.00 | 0.00 | 82 | 1026.2 |
| 20260502012024 | 38 | 217 | 0.0 | 0.0 | 0.00 | 0.00 | 0.00 | 83 | 1026.2 |
| 20260502011531 | 38 | 217 | 0.0 | 0.0 | 0.00 | 0.00 | 0.00 | 83 | 1026.3 |
| 20260502011026 | 38 | 217 | 0.0 | 0.0 | 0.00 | 0.00 | 0.00 | 85 | 1026.3 |
| 20260502010524 | 38 | 217 | 0.0 | 0.0 | 0.00 | 0.00 | 0.00 | 85 | 1026.3 |
| 20260502010023 | 38 | 217 | 0.0 | 0.0 | 0.00 | 0.00 | 0.00 | 84 | 1026.3 |
| 20260502005524 | 38 | 217 | 0.0 | 0.0 | 0.00 | 0.00 | 0.00 | 84 | 1026.2 |
| 20260502005024 | 38 | 217 | 0.0 | 0.0 | 0.00 | 0.00 | 0.00 | 84 | 1026.3 |
| 20260502004521 | 38 | 217 | 0.0 | 0.0 | 0.00 | 0.00 | 0.00 | 83 | 1026.3 |
| 20260502004234 | 38 | 217 | 0.0 | 0.0 | 0.00 | 0.00 | 0.00 | 83 | 1026.3 |
| 20260502003516 | 39 | 217 | 0.0 | 0.0 | 0.00 | 0.00 | 0.00 | 82 | 1026.3 |
| 20260502003239 | 39 | 217 | 0.0 | 0.0 | 0.00 | 0.00 | 0.00 | 82 | 1026.3 |
| 20260502002515 | 39 | 217 | 0.0 | 0.0 | 0.00 | 0.00 | 0.00 | 82 | 1026.3 |
| 20260502002015 | 39 | 217 | 0.0 | 0.0 | 0.00 | 0.00 | 0.00 | 83 | 1026.4 |
| 20260502001736 | 39 | 217 | 0.0 | 0.0 | 0.00 | 0.00 | 0.00 | 83 | 1026.4 |
| 20260502001014 | 39 | 217 | 0.0 | 0.0 | 0.00 | 0.00 | 0.00 | 83 | 1026.4 |
| 20260502000514 | 39 | 217 | 0.0 | 0.0 | 0.00 | 0.00 | 0.00 | 81 | 1026.4 |
| 20260502000247 | 39 | 217 | 0.0 | 0.0 | 0.00 | 0.00 | 0.00 | 82 | 1026.4 |
| 20260501235510 | 39 | 217 | 0.0 | 0.0 | 0.00 | 0.00 | 0.00 | 82 | 1026.4 |
| 20260501235011 | 39 | 217 | 0.0 | 0.0 | 0.00 | 0.00 | 0.00 | 83 | 1026.5 |
| 20260501234511 | 39 | 217 | 0.0 | 0.0 | 0.00 | 0.00 | 0.00 | 84 | 1026.4 |
| 20260501234011 | 39 | 217 | 0.0 | 0.0 | 0.00 | 0.00 | 0.00 | 83 | 1026.4 |
| 20260501233510 | 39 | 217 | 0.0 | 0.0 | 0.00 | 0.00 | 0.00 | 82 | 1026.4 |
| 20260501233007 | 39 | 217 | 0.0 | 0.0 | 0.00 | 0.00 | 0.00 | 83 | 1026.5 |
| 20260501232505 | 40 | 217 | 0.0 | 0.0 | 0.00 | 0.00 | 0.00 | 83 | 1026.4 |
| 20260501232002 | 39 | 217 | 0.0 | 0.0 | 0.00 | 0.00 | 0.00 | 82 | 1026.5 |
| 20260501231501 | 40 | 217 | 0.0 | 0.0 | 0.00 | 0.00 | 0.00 | 81 | 1026.6 |
| 20260501231002 | 40 | 217 | 0.0 | 0.0 | 0.00 | 0.00 | 0.00 | 80 | 1026.6 |
| 20260501230501 | 40 | 217 | 0.0 | 0.0 | 0.00 | 0.00 | 0.00 | 81 | 1026.6 |
| 20260501225958 | 40 | 217 | 0.0 | 0.9 | 0.00 | 0.00 | 0.00 | 81 | 1026.7 |
| 20260501225458 | 40 | 217 | 0.0 | 0.9 | 0.00 | 0.00 | 0.00 | 81 | 1026.7 |
| 20260501224959 | 40 | 217 | 0.0 | 0.9 | 0.00 | 0.00 | 0.00 | 82 | 1026.7 |
| 20260501224456 | 40 | 217 | 0.0 | 1.7 | 0.00 | 0.00 | 0.00 | 81 | 1026.7 |
| 20260501224217 | 41 | 217 | 0.0 | 1.7 | 0.00 | 0.00 | 0.00 | 79 | 1026.6 |
| 20260501223454 | 41 | 217 | 0.0 | 1.7 | 0.00 | 0.00 | 0.00 | 80 | 1026.6 |
| 20260501223219 | 41 | 217 | 0.9 | 1.7 | 0.00 | 0.00 | 0.00 | 80 | 1026.8 |
| 20260501222452 | 41 | 217 | 0.0 | 1.7 | 0.00 | 0.00 | 0.00 | 81 | 1026.8 |
| 20260501222215 | 40 | 217 | 0.0 | 0.0 | 0.00 | 0.00 | 0.00 | 82 | 1026.8 |
| 20260501221448 | 40 | 217 | 0.0 | 0.9 | 0.00 | 0.00 | 0.00 | 81 | 1026.7 |
| 20260501220947 | 41 | 217 | 0.0 | 0.9 | 0.00 | 0.00 | 0.00 | 79 | 1026.8 |
| 20260501220444 | 41 | 217 | 0.0 | 0.9 | 0.00 | 0.00 | 0.00 | 80 | 1026.7 |
| 20260501220434 | 41 | 217 | 0.0 | 0.9 | 0.00 | 0.00 | 0.00 | 81 | 1026.6 |
| 20260501215444 | 41 | 217 | 0.0 | 0.0 | 0.00 | 0.00 | 0.00 | 81 | 1026.7 |
| 20260501215435 | 41 | 217 | 0.0 | 0.0 | 0.00 | 0.00 | 0.00 | 80 | 1026.6 |
| 20260501214442 | 41 | 217 | 0.0 | 0.0 | 0.00 | 0.00 | 0.00 | 79 | 1026.6 |
| 20260501213942 | 42 | 217 | 0.0 | 0.9 | 0.00 | 0.00 | 0.00 | 77 | 1026.5 |
| 20260501213718 | 42 | 217 | 0.0 | 0.9 | 0.00 | 0.00 | 0.00 | 76 | 1026.6 |
| 20260501212942 | 42 | 217 | 0.0 | 0.9 | 0.00 | 0.00 | 0.00 | 78 | 1026.6 |
| 20260501212442 | 42 | 217 | 0.0 | 0.0 | 0.00 | 0.00 | 0.00 | 79 | 1026.6 |
| 20260501212206 | 42 | 217 | 0.0 | 0.0 | 0.00 | 0.00 | 0.00 | 79 | 1026.6 |
| 20260501211442 | 42 | 217 | 0.0 | 0.0 | 0.00 | 0.00 | 0.00 | 79 | 1026.5 |
| 20260501210942 | 42 | 217 | 0.0 | 0.0 | 0.00 | 0.00 | 0.00 | 78 | 1026.5 |
| 20260501210445 | 42 | 217 | 0.0 | 0.0 | 0.00 | 0.00 | 0.00 | 76 | 1026.5 |
| 20260501205942 | 43 | 217 | 0.0 | 0.0 | 0.00 | 0.00 | 0.00 | 75 | 1026.5 |
| 20260501205704 | 44 | 217 | 0.0 | 0.0 | 0.00 | 0.00 | 0.00 | 74 | 1026.5 |
| 20260501204942 | 43 | 217 | 0.0 | 0.0 | 0.00 | 0.00 | 0.00 | 75 | 1026.6 |
| 20260501204442 | 43 | 217 | 0.0 | 0.0 | 0.00 | 0.00 | 0.00 | 76 | 1026.6 |
| 20260501204204 | 43 | 217 | 0.0 | 0.0 | 0.00 | 0.00 | 0.00 | 77 | 1026.6 |
| 20260501203442 | 42 | 217 | 0.0 | 0.0 | 0.00 | 0.00 | 0.00 | 77 | 1026.5 |
| 20260501203209 | 42 | 217 | 0.0 | 0.0 | 0.00 | 0.00 | 0.00 | 77 | 1026.4 |
| 20260501202439 | 43 | 217 | 0.0 | 0.0 | 0.00 | 0.00 | 0.00 | 76 | 1026.5 |
| 20260501201938 | 43 | 217 | 0.0 | 0.0 | 0.00 | 0.00 | 0.00 | 77 | 1026.5 |
| 20260501201658 | 43 | 217 | 0.0 | 0.0 | 0.00 | 0.00 | 0.00 | 76 | 1026.3 |
| 20260501200935 | 43 | 217 | 0.0 | 0.0 | 0.00 | 0.00 | 0.00 | 75 | 1026.2 |
| 20260501200431 | 44 | 217 | 0.0 | 0.0 | 0.00 | 0.00 | 0.00 | 75 | 1026.0 |